Погода в Исити

Погода в Исити : погода сейчас, прогноз погоды и архив. Всё, что Вы хотите узнать о погоде в Исити!

Хотите узнать прогноз погоды в Исити? Тогда Вам сюда: Погода в Исити

Поиск расширенной информации на нашем сайте:

Полезная информация: как вернуть парня

Другие новости

Новости СМИ2

Главная страница сайта

Новости сайта

02.10.2013

Напоминаем, что на нашем новом сайте вы можете получить высокодетализированные прогнозы погоды по пунктам России, СНГ и мира (включающие важные для авиации метеовеличины, такие как направление и скорость ветра, видимость, явления погоды, количество и форма облачности, нижняя и верхняя граница облачности), а также ознакомиться с разнообразными материалами по авиационной метеорологии и подборкой полезных ссылок на эту тему.

Сайт Метеоцентр.Азия посвящён разработке технологий оптимизации авиаметеорологического обслуживания, включая проектирование и перспективное создание нескольких автоматизированных авиаметеорологических систем:
- система выпуска высокодетальных прогностических карт явлений погоды для нижнего воздушного пространства по России и ближнему зарубежью;
- система верификации прогнозов TAF (выпускаемых синоптиками официальных АМСГ РФ и ближнего зарубежья) и AUTOTAF (выпускаемых сайтом Метеоцентр.Азия) - выявление ошибок, онлайн-сопоставление с фактической погодой METAR, автоматическое внесение коррективов в прогнозы при резком отклонении фактической погоды от прогноза, подсчёт оправдываемости прогнозов по элементам и в целом;
- система обработки, анализа и отображения авиаметеорологической информации для применения провайдерами метеорологической информации.

Рекомендуем: Летняя и зимняя спецодежда оптом противогазы и озк москва.

Погода в Исити - сегодня

Время (UTC), дата Ветер
(°,м/с) 
Видим.   Явления Облачность Т
(°С)
Тd
(°С)
f(%) Тe
(°С)
Pmin
(гПа)
dP
(гПа)
Po
(мм)
O2
(г/м3)
Тmin Tmax R s Состояние
почвы
12 15.01.17 070 (В) 20000 м    ясно 
-35.9 -38.7 75 -37  1044.9  -0.5  769  359    -35.8       
15 15.01.17 тихо ()   20000 м    3/0 верхняя 
[Ci fib]
-36.2 -39 76 -36  1044  -0.9  768  359           
18 15.01.17 тихо ()   20000 м    8/0 верхняя 
[Cs]
-35.5 -38.4 75 -36  1043.6  -0.4  768  358           
21 15.01.17 тихо ()   20000 м    9/0 верхняя 
[Cs]
-35.1 -38 75 -35  1043  -0.6  768  357           
00 16.01.17 тихо ()   20000 м    4/0 средняя 
[Ac lent]
-35.1 -38 75 -35  1042.7  -0.3  767  357  -36.5      29  равномерный
сухой снег
100% 
03 16.01.17 120 (ЮВ) 20000 м    8/0 средняя, верхняя 
[Ac lent|Cc]
-34.3 -37.8 71 -35  1042.1  -0.5  767  356           
06 16.01.17 тихо ()   20000 м    6/0 средняя, верхняя 
[Ac lent|Ci sp]
-32.3 -35.9 70 -32  1040.7  -1.1  766  352           
09 16.01.17 тихо ()   20000 м    8/0 средняя, верхняя 
[Ac lent|Ci fib]
-34.5 -37.4 75 -35  1040.6  -0.3  766  355           
12 16.01.17 280 (З) 20000 м    ясно 
-34.7 -37.7 74 -36  1040.9  0.3  766  356    -31.5       
15 16.01.17 тихо ()   20000 м    6/0 средняя, верхняя 
[Ac lent|Ci fib]
-35.1 -38 75 -35  1040.4  -0.6  766  356           
18 16.01.17 280 (З) 20000 м    9/0 верхняя 
[Ci fib]
-34.5 -37.4 75 -35  1040.2  -0.1  766  355           
21 16.01.17 270 (З) 20000 м    10/0 средняя, верхняя 
[Ac lent|Cs]
-34.8 -37.7 75 -39  1040.3  0.1  766  356           
00 17.01.17 270 (З) 20000 м    10/0 средняя 
[As op]
-34.2 -37.1 75 -40  1040.4  0.1  766  355  -35.9      29  равномерный
сухой снег
100% 
03 17.01.17 270 (З) 20000 м    10/0 средняя 
[As op]
-33.1 -36 75 -39  1040.5  0.2  766  353           
06 17.01.17 270 (З) 20000 м    10/0 средняя 
[As op]
-32.1 -35 75 -36  1040.3  -0.1  766  352           
09 17.01.17 270 (З) 20000 м  слаб. снег  10/0 средняя 
[As op]
-30.8 -33.9 74 -35  1040.5  0.3  766  350           
12 17.01.17 270 (З) 20000 м  слаб. снег  10/0 средняя 
[As op]
-29.1 -32.2 74 -33  1040.4  766  348    -29  0.2     
15 17.01.17 270 (З) 20000 м  слаб. снег  10/0 средняя 
[As op]
-28.4 -31.5 75 -34  1040.8  766  347           
18 17.01.17 280 (З) 20000 м  слаб. снег  10/0 средняя 
[As op]
-27.1 -30.2 75 -31  1040.3  766  345           
21 17.01.17 280 (З) 20000 м  слаб. снег  10/0 средняя 
[As op]
-26.5 -29.7 74 -30  1040.1  -0.1  766  344           
00 18.01.17 280 (З) 20000 м  слаб. снег  10/0 средняя 
[As op]
-26.3 -29.4 75 -31  1039.9  -0.2  766  343  -29.3    0.4  29  равномерный
сухой снег
100% 
03 18.01.17 280 (З) 20000 м  слаб. снег  10/0 средняя, верхняя 
[Ac As|Cs]
-26.8 -30 74 -32  1039.8  -0.3  766  344           
06 18.01.17 280 (З) 20000 м  позёмок{снег}  10/0 средняя, верхняя 
[Ac As|Cs]
-26.3 -29.4 75 -31  1038.8  -0.8  765  343           
09 18.01.17 270 (З) 20000 м    8/0 средняя, верхняя 
[Ac lent|Ci sp]
-28.3 -31.3 76 -29  1038.9  765  346           
12 18.01.17 270 (З) 20000 м  слаб. снег  10/0 средняя, верхняя 
[Ac As|Cs]
-28.6 -31.7 75 -32  1038.7  -0.3      -26.3  0.6     
Время (UTC), дата Ветер
(°,м/с) 
Видим.   Явления Облачность Т
(°С)
Тd
(°С)
f(%) Тe
(°С)
Pmin
(гПа)
dP
(гПа)
Po
(мм)
O2
(г/м3)
Тmin Tmax R s Состояние
почвы

Для получения пояснительной информации подведите курсор к названию столбца.

ПОГОДА в Исити - архив

Всё, что Вы хотите узнать о погоде в Исити - удобно и подробно!

Выберите нужную дату (начиная с 1 января 2015* года) и нажмите кнопку "Найти".
Будут отображены архивные сводки погоды по пункту Исить, начиная с указанной даты.


Отображать данные в формате CSV (для использования в таблицах Excel)


Внимание! Наш архив погоды предназначен исключительно для личного некоммерческого использования в познавательных целях. Если Вам необходимы официальные справки о состоянии погоды (для производственных, юридических, коммерческих и т.п. целей), обращайтесь в органы Росгидромета.

*Примечание: данная дата относится к архиву по метеостанциям СССР (Россия, СНГ, Балтия).
Архив по метеостанциям Зарубежной Европы и Азии (кроме Китая) хранится 10 дней, по другим регионам земного шара (Китай, Африка, Америка, Австралия, Океания) - 1 день.

Исить - район местоположения метеостанции


Название, широта, долгота, высота метеостанции:
Исить 60.8°ш. 125.3°д. 118 м над ур. моря [Российская Федерация]

Дополнительная информация

В oтличие oт бoльшинства пoгoдных сайтoв мы публикуем пoдрoбную метеoинфoрмацию в детальнoм прoфессиoнальнoм фoрмате.

Характеристики температуры и влажнoсти вoздуха измеряются на высoте 2 м в тени вдали oт зданий и деревьев.
Скoрoсть ветра измеряется на высoте 10 м (на урoвне рoста челoвека скoрoсть ветра ниже в 1.5-2 раза). Если метеoстанция нахoдится в гoрoде или в лесу, тo скoрoсть ветра занижена на 2-4 м/с пo сравнению с oткрытым местoм. Скoрoсть ветра над акватoриями крупных рек и oзёр, а также на вершинах хoлмoв на 2-5 м/с выше, чем в oбычных услoвиях.
Атмoсфернoе давление в разных тoчках местнoсти мoжет значительнo oтличаться oт давления на метеoстанции, в зависимoсти oт услoвий рельефа (при пoдъёме на 10 м давление пoнижается примернo на 1 мм рт.ст.).